Location: Sevilla
(37.3933°N, 5.9839°W)
Time: 03:23:29
(UTC+02:00)

Transit 2A Rocket - Pass Details

Date: 30 June 2024
Orbit: 582 x 910 km, 66.7° (Epoch: 13 July)

Event Time Altitude Azimuth Distance (km) Brightness Sun altitude
Rises 20:31:38 0° 214° (SW) 3,059 8.3 13.1°
Reaches altitude 10° 20:33:53 10° 217° (SW) 2,195 7.7 12.6°
Maximum altitude 20:38:53 67° 300° (WNW) 836 5.8 11.7°
Drops below altitude 10° 20:44:26 10° 23° (NNE) 2,428 7.6 10.7°
Sets 20:47:02 0° 26° (NNE) 3,412 8.3 10.2°
